Location: Brad
(46.1333°N, 22.7833°E)
Time: 11:14:02
(UTC+00:00)

Spot 1 - Pass Details

Date: 03 February 2023
Orbit: 574 x 773 km, 98.8° (Epoch: 20 March)

Event Time Altitude Azimuth Distance (km) Brightness Sun altitude
Exits shadow 17:14:19 35° 76° (ENE) 933 4.4 -17.2°
Maximum altitude 17:14:57 38° 99° (E) 888 4.3 -17.3°
Drops below altitude 10° 17:18:45 10° 168° (SSE) 1,881 6.5 -18.0°
Sets 17:21:00 0° 177° (S) 2,782 7.4 -18.3°
